TimeEDT,TemperatureF,Dew PointF,Humidity,Sea Level PressureIn,VisibilityMPH,Wind Direction,Wind SpeedMPH,Gust SpeedMPH,PrecipitationIn,Events,Conditions,WindDirDegrees,DateUTC
12:15 AM,52.7,43.7,71,30.38,10.0,NW,3.5,-,N/A,,Clear,310,2013-09-18 04:15:00
12:35 AM,52.9,43.7,71,30.38,10.0,West,3.5,-,N/A,,Clear,280,2013-09-18 04:35:00
12:55 AM,52.7,43.9,72,30.38,10.0,WNW,3.5,-,N/A,,Clear,290,2013-09-18 04:55:00
1:15 AM,52.2,43.9,73,30.38,10.0,NW,4.6,-,N/A,,Clear,310,2013-09-18 05:15:00
1:35 AM,51.3,44.4,77,30.38,10.0,WNW,3.5,-,N/A,,Clear,300,2013-09-18 05:35:00
1:55 AM,51.3,44.2,77,30.38,10.0,Calm,Calm,-,N/A,,Clear,0,2013-09-18 05:55:00
2:15 AM,50.9,44.2,78,30.38,10.0,WNW,3.5,-,N/A,,Clear,300,2013-09-18 06:15:00
2:35 AM,50.4,43.9,78,30.37,10.0,NW,3.5,-,N/A,,Clear,310,2013-09-18 06:35:00
2:55 AM,50.2,44.2,80,30.37,10.0,WNW,3.5,-,N/A,,Clear,300,2013-09-18 06:55:00
3:15 AM,50.0,44.1,80,30.37,10.0,WNW,3.5,-,N/A,,Clear,290,2013-09-18 07:15:00
3:35 AM,49.6,44.1,81,30.37,10.0,WNW,3.5,-,N/A,,Clear,290,2013-09-18 07:35:00
3:55 AM,48.9,43.5,82,30.36,10.0,WNW,3.5,-,N/A,,Clear,300,2013-09-18 07:55:00
4:15 AM,49.1,43.5,81,30.36,10.0,Calm,Calm,-,N/A,,Clear,0,2013-09-18 08:15:00
4:35 AM,49.1,43.2,80,30.36,10.0,Calm,Calm,-,N/A,,Clear,0,2013-09-18 08:35:00
4:55 AM,49.1,43.2,80,30.36,10.0,Calm,Calm,-,N/A,,Clear,0,2013-09-18 08:55:00
5:15 AM,48.7,43.3,82,30.36,10.0,Calm,Calm,-,N/A,,Clear,0,2013-09-18 09:15:00
5:35 AM,48.7,43.5,82,30.36,10.0,Calm,Calm,-,N/A,,Clear,0,2013-09-18 09:35:00
5:55 AM,48.6,43.3,82,30.36,10.0,Calm,Calm,-,N/A,,Clear,0,2013-09-18 09:55:00
6:15 AM,48.4,43.3,83,30.36,10.0,Calm,Calm,-,N/A,,Clear,0,2013-09-18 10:15:00
6:35 AM,48.4,43.3,83,30.36,10.0,Calm,Calm,-,N/A,,Clear,0,2013-09-18 10:35:00
6:55 AM,48.4,43.2,82,30.36,10.0,Calm,Calm,-,N/A,,Clear,0,2013-09-18 10:55:00
7:15 AM,48.9,43.5,82,30.37,10.0,Calm,Calm,-,N/A,,Clear,0,2013-09-18 11:15:00
7:35 AM,50.0,43.3,78,30.37,10.0,Calm,Calm,-,N/A,,Clear,0,2013-09-18 11:35:00
7:55 AM,51.3,43.5,75,30.37,10.0,Calm,Calm,-,N/A,,Clear,0,2013-09-18 11:55:00
8:15 AM,52.9,44.2,72,30.37,10.0,Calm,Calm,-,N/A,,Clear,0,2013-09-18 12:15:00
8:35 AM,55.2,44.8,68,30.36,10.0,Calm,Calm,-,N/A,,Clear,0,2013-09-18 12:35:00
8:55 AM,58.1,46.0,64,30.36,10.0,WNW,4.6,-,N/A,,Clear,290,2013-09-18 12:55:00
9:15 AM,59.9,46.4,61,30.36,10.0,WNW,3.5,-,N/A,,Clear,300,2013-09-18 13:15:00
9:35 AM,61.2,45.9,57,30.36,10.0,Calm,Calm,-,N/A,,Clear,0,2013-09-18 13:35:00
9:55 AM,62.8,44.6,51,30.36,10.0,WNW,5.8,-,N/A,,Clear,300,2013-09-18 13:55:00
10:15 AM,63.5,43.0,47,30.35,10.0,WNW,4.6,-,N/A,,Clear,290,2013-09-18 14:15:00
10:35 AM,63.9,43.3,47,30.35,10.0,WNW,4.6,-,N/A,,Clear,300,2013-09-18 14:35:00
10:55 AM,65.1,43.9,46,30.34,10.0,West,4.6,-,N/A,,Clear,280,2013-09-18 14:55:00
11:15 AM,65.5,43.3,45,30.33,10.0,Calm,Calm,-,N/A,,Clear,0,2013-09-18 15:15:00
11:35 AM,66.4,41.7,41,30.33,10.0,Calm,Calm,-,N/A,,Clear,0,2013-09-18 15:35:00
11:55 AM,66.6,42.1,41,30.33,10.0,West,3.5,-,N/A,,Clear,270,2013-09-18 15:55:00
12:15 PM,67.1,41.5,39,30.32,10.0,WSW,4.6,-,N/A,,Clear,240,2013-09-18 16:15:00
12:35 PM,67.6,41.0,38,30.30,10.0,West,3.5,-,N/A,,Clear,280,2013-09-18 16:35:00
12:55 PM,68.2,40.8,37,30.30,10.0,NW,5.8,-,N/A,,Clear,310,2013-09-18 16:55:00
1:15 PM,68.7,40.3,35,30.29,3.0,WNW,3.5,-,N/A,,Haze,300,2013-09-18 17:15:00
1:35 PM,69.8,39.6,33,30.28,10.0,West,3.5,-,N/A,,Clear,280,2013-09-18 17:35:00
1:55 PM,69.8,41.5,36,30.28,10.0,WSW,3.5,-,N/A,,Clear,240,2013-09-18 17:55:00
2:15 PM,71.2,39.9,32,30.27,10.0,South,4.6,-,N/A,,Clear,190,2013-09-18 18:15:00
2:35 PM,71.2,40.6,33,30.26,10.0,West,3.5,-,N/A,,Clear,280,2013-09-18 18:35:00
2:55 PM,71.4,39.7,32,30.25,10.0,West,3.5,-,N/A,,Clear,280,2013-09-18 18:55:00
3:15 PM,72.0,41.2,33,30.25,10.0,Calm,Calm,-,N/A,,Clear,0,2013-09-18 19:15:00
3:35 PM,72.5,40.8,32,30.24,10.0,West,3.5,-,N/A,,Clear,260,2013-09-18 19:35:00
3:55 PM,71.8,41.5,34,30.23,10.0,NW,4.6,-,N/A,,Clear,310,2013-09-18 19:55:00
4:15 PM,72.3,41.7,33,30.23,10.0,South,6.9,-,N/A,,Clear,180,2013-09-18 20:15:00
4:35 PM,72.3,41.5,33,30.23,10.0,SSW,6.9,-,N/A,,Clear,210,2013-09-18 20:35:00
4:55 PM,71.6,44.8,38,30.22,10.0,South,6.9,-,N/A,,Clear,180,2013-09-18 20:55:00
5:15 PM,70.7,48.6,45,30.22,10.0,SSE,9.2,-,N/A,,Clear,150,2013-09-18 21:15:00
5:35 PM,69.8,50.2,50,30.22,10.0,SSE,8.1,-,N/A,,Clear,160,2013-09-18 21:35:00
5:55 PM,69.1,50.9,52,30.22,10.0,SSE,8.1,-,N/A,,Clear,160,2013-09-18 21:55:00
6:15 PM,68.7,51.4,54,30.22,10.0,SSE,8.1,-,N/A,,Clear,150,2013-09-18 22:15:00
6:35 PM,67.3,51.8,58,30.22,10.0,SSE,5.8,-,N/A,,Clear,150,2013-09-18 22:35:00
6:55 PM,66.6,52.2,60,30.22,10.0,SSE,5.8,-,N/A,,Clear,160,2013-09-18 22:55:00
7:15 PM,65.8,52.5,62,30.21,10.0,SSE,3.5,-,N/A,,Clear,160,2013-09-18 23:15:00
7:35 PM,65.3,52.3,63,30.22,10.0,South,4.6,-,N/A,,Clear,180,2013-09-18 23:35:00
7:55 PM,64.8,52.2,64,30.22,10.0,South,3.5,-,N/A,,Clear,180,2013-09-18 23:55:00
8:15 PM,64.0,51.8,64,30.22,10.0,South,6.9,-,N/A,,Clear,180,2013-09-19 00:15:00
8:35 PM,63.5,51.8,66,30.22,10.0,SSW,4.6,-,N/A,,Clear,200,2013-09-19 00:35:00
8:55 PM,62.8,51.6,67,30.22,10.0,SSW,4.6,-,N/A,,Clear,200,2013-09-19 00:55:00
9:15 PM,62.2,51.1,67,30.22,10.0,SW,3.5,-,N/A,,Clear,220,2013-09-19 01:15:00
9:35 PM,61.7,50.9,68,30.22,10.0,Calm,Calm,-,N/A,,Clear,0,2013-09-19 01:35:00
9:55 PM,60.8,50.9,70,30.23,10.0,Calm,Calm,-,N/A,,Clear,0,2013-09-19 01:55:00
10:15 PM,60.4,50.7,70,30.23,10.0,Calm,Calm,-,N/A,,Clear,0,2013-09-19 02:15:00
10:35 PM,59.9,50.5,71,30.23,10.0,Calm,Calm,-,N/A,,Clear,0,2013-09-19 02:35:00
10:55 PM,59.7,50.5,72,30.23,10.0,Calm,Calm,-,N/A,,Clear,0,2013-09-19 02:55:00
11:15 PM,59.4,50.9,74,30.23,10.0,Calm,Calm,-,N/A,,Clear,0,2013-09-19 03:15:00
11:35 PM,59.2,50.7,74,30.22,10.0,West,3.5,-,N/A,,Clear,260,2013-09-19 03:35:00
11:55 PM,58.6,50.9,75,30.22,10.0,Calm,Calm,-,N/A,,Clear,0,2013-09-19 03:55:00